Location: Cahas Mountain Overlook
(37.0833°N, 80.1000°W)
Time: 13:14:43
(UTC-05:00)

Tiangong - Visible Passes

Search period start: 07 December 2021 00:00
Search period end: 17 December 2021 00:00
Orbit: 379 x 385 km, 41.5° (Epoch: 07 December)

Date Brightness Start Highest point End Pass type
(mag) Time Alt. Az. Time Alt. Az. Time Alt. Az.
07 Dec 2.7 18:00:01 10° SSW 18:02:34 23° SSE 18:04:10 16° ESE visible
07 Dec 4.5 19:36:01 10° WSW 19:36:20 12° WSW 19:36:20 12° WSW visible
08 Dec 0.9 18:35:30 10° WSW 18:38:39 74° SSE 18:38:49 71° ESE visible
09 Dec 1.9 17:35:12 10° SW 17:38:11 40° SSE 17:41:11 10° E visible
09 Dec 3.4 19:11:53 10° W 19:13:24 24° WNW 19:13:24 24° WNW visible
10 Dec 1.1 18:11:12 10° WSW 18:14:21 69° NNW 18:15:46 29° ENE visible
11 Dec 2.2 18:47:43 10° WNW 18:50:14 35° NNW 18:50:14 35° NNW visible
12 Dec 1.6 17:46:57 10° W 17:50:01 48° NNW 17:52:32 14° ENE visible
12 Dec 4.2 19:24:12 10° WNW 19:24:42 13° WNW 19:24:42 13° WNW visible
13 Dec 2.0 18:23:28 10° WNW 18:26:24 34° N 18:26:59 31° NNE visible
14 Dec 2.9 18:59:46 10° WNW 19:01:27 25° NW 19:01:27 25° NW visible
15 Dec 1.9 17:59:05 10° WNW 18:02:01 35° N 18:03:47 19° ENE visible
15 Dec 4.5 19:35:52 10° WNW 19:35:56 10° WNW 19:35:56 10° WNW visible
16 Dec 1.2 18:35:13 10° WNW 18:38:19 53° NNE 18:38:19 53° NNE visible
